Regional Weather Roundup
Issued by NWS State College, PA

Home | Current Version | Previous Version | Text Only | Print | Product List | Glossary Off
Versions: 1 2 3 4 5 6 7 8 9 10 11 12 13 14 15 16 17 18 19 20 21 22 23 24 25 26 27 28 29 30 31 32 33 34 35 36 37 38 39 40 41 42 43 44 45 46 47 48 49 50

000
ASUS41 KCTP 211710
RWRCTP

REGIONAL WEATHER ROUNDUP
NATIONAL WEATHER SERVICE STATE COLLEGE PA
1200 PM EST SUN DEC 21 2014

Note: "fair" indicates few or no clouds below 12,000 feet with no
significant weather and/or obstructions to visibility.

* = STATION THAT DOES NOT REPORT PRECIPITATION /E.G. RAIN...SNOW...ETC/
    THUNDER OR FOG.

PAZ002>004-007>009-013>016-020>023-029>032-211800-
WESTERN PENNSYLVANIA

CITY           SKY/WX    TMP DP  RH WIND       PRES   REMARKS
ERIE           CLOUDY    32  24  72 S6        30.31F
MEADVILLE      CLOUDY    30  21  69 CALM      30.27F
FRANKLIN*      CLOUDY    28  21  74 SE3       30.28F
NEW CASTLE       N/A     31  21  66 CALM      30.31F
BEAVER COUNTY  CLOUDY    30  21  69 CALM      30.29F
BUTLER*        CLOUDY    28  19  69 E3        30.31F
PITTSBURGH INT CLOUDY    31  21  66 CALM      30.29F
PITTSBURGH     CLOUDY    30  19  63 SE3       30.28F
INDIANA*       CLOUDY    28  21  74 CALM      30.32F
LATROBE        CLOUDY    32  23  69 CALM      30.32F
WASHINGTON CO* NOT AVBL
$$

PAZ004>006-010>012-017>019-024>028-033>037-041-042-045-046-049>053-211800-
CENTRAL PENNSYLVANIA

CITY           SKY/WX    TMP DP  RH WIND       PRES   REMARKS
BRADFORD       CLOUDY    26  20  77 NW3       30.23F
DUBOIS         CLOUDY    27  21  78 NE3       30.25F
CLEARFIELD     CLOUDY    28  20  71 CALM      30.28F
JOHNSTOWN      CLOUDY    27  20  75 VRB5      30.22F
ALTOONA        CLOUDY    30  21  69 W6        30.28F
STATE COLLEGE  CLOUDY    30  21  69 CALM      30.30F
WILLIAMSPORT   CLOUDY    34  19  54 MISG      30.32F
SELINSGROVE    CLOUDY    33  22  63 N6        30.34F
FT INDIANTOWN  CLOUDY    33  21  63 N6        30.32F
CAPITAL CITY   CLOUDY    34  21  59 N8        30.34F
HARRISBURG     CLOUDY    34  21  59 NW8       30.33F
YORK           MOSUNNY   37  22  54 NW8       30.32F
$$

PAZ038>040-043-044-047-048-054-055-060>062-067>071-211800-
EASTERN PENNSYLVANIA

CITY           SKY/WX    TMP DP  RH WIND       PRES   REMARKS
SCRANTON       CLOUDY    31  19  61 N6        30.28F
MOUNT POCONO   CLOUDY    26  19  74 NW8       30.23S
ALLENTOWN      CLOUDY    34  20  56 NW6       30.32F
QUAKERTOWN*    CLOUDY    32  21  64 NW7       30.31F
READING        CLOUDY    34  22  61 NW10      30.32F
LANCASTER      CLOUDY    33  21  61 N8        30.32F
COATESVILLE    MOSUNNY   36  25  64 NW10      30.31F
POTTSTOWN      CLOUDY    35  23  61 N7        30.33F
BLUE BELL      PTSUNNY   37  25  60 N7        30.31F
DOYLESTOWN     PTSUNNY   34  22  61 N7        30.30F
WILLOW GROVE   NOT AVBL
NORTH PHILA    MOSUNNY   39  20  46 N12       30.33F
PHILADELPHIA   MOSUNNY   39  21  48 VRB7      30.33F
$$



USA.gov is the U.S. government's official web portal to all federal, state and local government web resources and services.